| time (UTC) | temp F | wind direction | speed MPH | gust MPH | rain 1hr in | rain 24hr in | rain mn in | humidity % | barometer mb |
| 20260510190438 | 77 | 248 | 2.0 | 6.0 | 0.00 | 0.01 | 0.01 | 45 | 1015.2 |
| 20260510185935 | 77 | 81 | 0.0 | 2.0 | 0.00 | 0.01 | 0.01 | 45 | 1015.4 |
| 20260510185432 | 77 | 325 | 4.0 | 7.0 | 0.00 | 0.01 | 0.01 | 45 | 1015.3 |
| 20260510184929 | 76 | 320 | 2.0 | 3.0 | 0.00 | 0.01 | 0.01 | 46 | 1015.3 |
| 20260510184427 | 76 | 89 | 0.0 | 3.0 | 0.00 | 0.01 | 0.01 | 47 | 1015.2 |
| 20260510183926 | 77 | 317 | 6.0 | 9.0 | 0.00 | 0.01 | 0.01 | 44 | 1015.1 |
| 20260510183423 | 77 | 32 | 1.0 | 2.0 | 0.00 | 0.01 | 0.01 | 43 | 1015.2 |
| 20260510182918 | 77 | 226 | 1.0 | 4.0 | 0.00 | 0.01 | 0.01 | 43 | 1015.0 |
| 20260510182415 | 78 | 129 | 3.0 | 13.0 | 0.00 | 0.01 | 0.01 | 42 | 1015.2 |
| 20260510181910 | 79 | 235 | 2.0 | 7.0 | 0.00 | 0.01 | 0.01 | 41 | 1015.0 |
| 20260510181408 | 80 | 220 | 3.0 | 4.0 | 0.00 | 0.01 | 0.01 | 41 | 1015.2 |
| 20260510180904 | 80 | 126 | 2.0 | 3.0 | 0.00 | 0.01 | 0.01 | 43 | 1015.1 |
| 20260510180401 | 80 | 153 | 1.0 | 6.0 | 0.00 | 0.01 | 0.01 | 40 | 1014.8 |
| 20260510175858 | 80 | 226 | 1.0 | 6.0 | 0.00 | 0.01 | 0.01 | 39 | 1015.3 |
| 20260510175354 | 80 | 215 | 2.0 | 3.0 | 0.00 | 0.01 | 0.01 | 43 | 1015.2 |
| 20260510174850 | 79 | 118 | 0.0 | 3.0 | 0.00 | 0.01 | 0.01 | 44 | 1015.1 |
| 20260510174348 | 78 | 268 | 1.0 | 3.0 | 0.00 | 0.01 | 0.01 | 46 | 1015.0 |
| 20260510173844 | 79 | 77 | 2.0 | 8.0 | 0.00 | 0.01 | 0.01 | 43 | 1015.1 |
| 20260510173340 | 78 | 204 | 2.0 | 6.0 | 0.00 | 0.01 | 0.01 | 43 | 1015.2 |
| 20260510172836 | 79 | 218 | 5.0 | 6.0 | 0.00 | 0.01 | 0.01 | 42 | 1015.2 |
| 20260510172332 | 78 | 230 | 1.0 | 4.0 | 0.00 | 0.01 | 0.01 | 45 | 1015.3 |
| 20260510171829 | 77 | 90 | 4.0 | 4.0 | 0.00 | 0.01 | 0.01 | 46 | 1015.4 |
| 20260510171326 | 77 | 217 | 2.0 | 6.0 | 0.00 | 0.01 | 0.01 | 46 | 1015.3 |
| 20260510170823 | 77 | 109 | 0.0 | 3.0 | 0.00 | 0.01 | 0.01 | 48 | 1015.2 |
| 20260510170319 | 76 | 223 | 1.0 | 6.0 | 0.00 | 0.01 | 0.01 | 51 | 1015.4 |
| 20260510165815 | 75 | 108 | 1.0 | 4.0 | 0.00 | 0.01 | 0.01 | 51 | 1015.5 |
| 20260510165312 | 75 | 198 | 2.0 | 4.0 | 0.00 | 0.01 | 0.01 | 52 | 1015.6 |
| 20260510164809 | 75 | 98 | 1.0 | 4.0 | 0.00 | 0.01 | 0.01 | 51 | 1015.5 |
| 20260510164307 | 75 | 107 | 0.0 | 3.0 | 0.00 | 0.01 | 0.01 | 54 | 1015.7 |
| 20260510163806 | 75 | 22 | 2.0 | 3.0 | 0.00 | 0.01 | 0.01 | 53 | 1015.6 |
| 20260510163302 | 75 | 254 | 6.0 | 9.0 | 0.00 | 0.01 | 0.01 | 51 | 1015.6 |
| 20260510162802 | 75 | 355 | 1.0 | 4.0 | 0.00 | 0.01 | 0.01 | 52 | 1015.4 |
| 20260510162259 | 74 | 104 | 1.0 | 7.0 | 0.00 | 0.01 | 0.01 | 54 | 1015.5 |
| 20260510161755 | 73 | 103 | 1.0 | 3.0 | 0.00 | 0.01 | 0.01 | 57 | 1015.5 |
| 20260510161251 | 72 | 77 | 2.0 | 3.0 | 0.00 | 0.01 | 0.01 | 56 | 1015.7 |
| 20260510160748 | 72 | 19 | 2.0 | 4.0 | 0.00 | 0.01 | 0.01 | 54 | 1015.7 |
| 20260510160244 | 72 | 309 | 5.0 | 8.0 | 0.00 | 0.01 | 0.01 | 55 | 1015.7 |
| 20260510155740 | 72 | 256 | 3.0 | 4.0 | 0.00 | 0.01 | 0.01 | 56 | 1015.7 |
| 20260510155236 | 72 | 296 | 4.0 | 6.0 | 0.00 | 0.01 | 0.01 | 56 | 1015.7 |
| 20260510154732 | 71 | 97 | 0.0 | 3.0 | 0.00 | 0.01 | 0.01 | 60 | 1015.8 |
| 20260510154228 | 70 | 177 | 1.0 | 3.0 | 0.00 | 0.01 | 0.01 | 61 | 1015.6 |
| 20260510153723 | 70 | 66 | 1.0 | 3.0 | 0.00 | 0.01 | 0.01 | 65 | 1015.7 |
| 20260510153219 | 70 | 22 | 3.0 | 7.0 | 0.00 | 0.01 | 0.01 | 61 | 1015.8 |
| 20260510152716 | 69 | 322 | 2.0 | 3.0 | 0.00 | 0.01 | 0.01 | 64 | 1016.1 |
| 20260510152212 | 69 | 238 | 2.0 | 4.0 | 0.00 | 0.01 | 0.01 | 63 | 1016.1 |
| 20260510151709 | 69 | 133 | 3.0 | 4.0 | 0.00 | 0.01 | 0.01 | 63 | 1016.1 |
| 20260510151208 | 68 | 102 | 0.0 | 1.0 | 0.00 | 0.01 | 0.01 | 67 | 1016.3 |
| 20260510150703 | 68 | 195 | 1.0 | 3.0 | 0.00 | 0.01 | 0.01 | 66 | 1016.2 |
| 20260510150158 | 68 | 338 | 2.0 | 3.0 | 0.00 | 0.01 | 0.01 | 65 | 1016.3 |
| 20260510145655 | 67 | 324 | 3.0 | 3.0 | 0.00 | 0.01 | 0.01 | 68 | 1016.2 |
| 20260510145151 | 67 | 201 | 2.0 | 2.0 | 0.00 | 0.01 | 0.01 | 69 | 1016.1 |
| 20260510144647 | 67 | 106 | 0.0 | 1.0 | 0.00 | 0.01 | 0.01 | 71 | 1016.1 |
| 20260510144144 | 66 | 153 | 3.0 | 3.0 | 0.00 | 0.01 | 0.01 | 71 | 1015.7 |
| 20260510143639 | 65 | 244 | 1.0 | 2.0 | 0.00 | 0.01 | 0.01 | 73 | 1015.8 |
| 20260510143136 | 65 | 114 | 1.0 | 2.0 | 0.00 | 0.01 | 0.01 | 75 | 1016.2 |
| 20260510142632 | 64 | 17 | 0.0 | 1.0 | 0.00 | 0.01 | 0.01 | 74 | 1016.1 |
| 20260510142129 | 64 | 98 | 0.0 | 2.0 | 0.00 | 0.01 | 0.01 | 75 | 1016.3 |
| 20260510141626 | 63 | 102 | 0.0 | 1.0 | 0.00 | 0.01 | 0.01 | 77 | 1016.2 |
| 20260510141124 | 62 | 53 | 1.0 | 2.0 | 0.00 | 0.01 | 0.01 | 77 | 1016.2 |
| 20260510140620 | 62 | 68 | 2.0 | 2.0 | 0.00 | 0.01 | 0.01 | 78 | 1016.2 |
| 20260510140120 | 62 | 55 | 1.0 | 1.0 | 0.00 | 0.01 | 0.01 | 80 | 1016.3 |
| 20260510135615 | 62 | 73 | 1.0 | 2.0 | 0.00 | 0.01 | 0.01 | 81 | 1016.1 |
| 20260510135112 | 60 | 104 | 0.0 | 2.0 | 0.00 | 0.01 | 0.01 | 85 | 1015.9 |
| 20260510134609 | 59 | 202 | 1.0 | 2.0 | 0.00 | 0.01 | 0.01 | 83 | 1016.2 |
| 20260510134106 | 58 | 102 | 0.0 | 1.0 | 0.00 | 0.01 | 0.01 | 87 | 1015.6 |
| 20260510133602 | 58 | 83 | 0.0 | 1.0 | 0.00 | 0.01 | 0.01 | 90 | 1015.8 |
| 20260510133057 | 58 | 68 | 1.0 | 2.0 | 0.00 | 0.01 | 0.01 | 92 | 1015.8 |
| 20260510132554 | 57 | 92 | 0.0 | 1.0 | 0.00 | 0.01 | 0.01 | 95 | 1016.3 |
| 20260510132051 | 56 | 95 | 0.0 | 1.0 | 0.00 | 0.01 | 0.01 | 95 | 1016.2 |
| 20260510131549 | 56 | 75 | 0.0 | 1.0 | 0.00 | 0.01 | 0.01 | 95 | 1016.1 |
| 20260510131046 | 55 | 112 | 0.0 | 0.0 | 0.00 | 0.01 | 0.01 | 96 | 1016.4 |
| 20260510130542 | 55 | 323 | 2.0 | 3.0 | 0.00 | 0.01 | 0.01 | 96 | 1016.4 |
| 20260510130040 | 55 | 322 | 0.0 | 2.0 | 0.00 | 0.01 | 0.01 | 97 | 1016.2 |
| 20260510125536 | 54 | 119 | 1.0 | 2.0 | 0.00 | 0.01 | 0.01 | 97 | 1016.1 |
| 20260510125032 | 54 | 69 | 0.0 | 1.0 | 0.00 | 0.01 | 0.01 | 97 | 1015.8 |
| 20260510124529 | 54 | 112 | 0.0 | 1.0 | 0.00 | 0.01 | 0.01 | 97 | 1015.8 |
| 20260510124026 | 54 | 110 | 0.0 | 1.0 | 0.00 | 0.01 | 0.01 | 97 | 1015.8 |
| 20260510123521 | 54 | 104 | 0.0 | 0.0 | 0.00 | 0.01 | 0.01 | 97 | 1015.5 |
| 20260510123018 | 54 | 317 | 2.0 | 2.0 | 0.00 | 0.01 | 0.01 | 97 | 1015.6 |
| 20260510122513 | 53 | 65 | 1.0 | 2.0 | 0.00 | 0.01 | 0.01 | 97 | 1015.6 |
| 20260510122010 | 53 | 86 | 0.0 | 1.0 | 0.00 | 0.01 | 0.01 | 97 | 1015.7 |
| 20260510121507 | 53 | 331 | 1.0 | 2.0 | 0.00 | 0.01 | 0.01 | 97 | 1015.9 |
| 20260510121005 | 53 | 78 | 0.0 | 1.0 | 0.00 | 0.01 | 0.01 | 97 | 1015.5 |
| 20260510120502 | 53 | 76 | 0.0 | 1.0 | 0.00 | 0.01 | 0.01 | 97 | 1015.7 |
| 20260510115957 | 53 | 81 | 1.0 | 1.0 | 0.00 | 0.01 | 0.01 | 97 | 1015.3 |
| 20260510115455 | 53 | 89 | 0.0 | 1.0 | 0.00 | 0.01 | 0.01 | 97 | 1015.4 |
| 20260510114950 | 53 | 82 | 0.0 | 1.0 | 0.00 | 0.01 | 0.01 | 98 | 1015.5 |
| 20260510114447 | 53 | 85 | 0.0 | 0.0 | 0.00 | 0.01 | 0.01 | 98 | 1015.4 |
| 20260510113943 | 52 | 97 | 0.0 | 1.0 | 0.00 | 0.01 | 0.01 | 98 | 1015.5 |
| 20260510113438 | 52 | 114 | 1.0 | 2.0 | 0.00 | 0.01 | 0.01 | 98 | 1015.4 |
| 20260510112936 | 52 | 74 | 0.0 | 1.0 | 0.00 | 0.01 | 0.01 | 98 | 1015.2 |
| 20260510112433 | 52 | 57 | 1.0 | 2.0 | 0.00 | 0.01 | 0.01 | 98 | 1015.1 |
| 20260510111929 | 52 | 61 | 0.0 | 1.0 | 0.00 | 0.01 | 0.01 | 98 | 1014.8 |
| 20260510111425 | 52 | 44 | 1.0 | 3.0 | 0.00 | 0.01 | 0.01 | 98 | 1015.0 |
| 20260510110921 | 51 | 59 | 0.0 | 3.0 | 0.00 | 0.01 | 0.01 | 98 | 1014.9 |
| 20260510110418 | 51 | 60 | 0.0 | 2.0 | 0.00 | 0.01 | 0.01 | 98 | 1014.8 |
| 20260510105914 | 51 | 65 | 0.0 | 1.0 | 0.00 | 0.01 | 0.01 | 98 | 1014.9 |
| 20260510105415 | 51 | 86 | 0.0 | 1.0 | 0.00 | 0.01 | 0.01 | 98 | 1014.9 |
| 20260510104910 | 51 | 74 | 0.0 | 2.0 | 0.00 | 0.01 | 0.01 | 98 | 1014.9 |
| 20260510104407 | 51 | 22 | 1.0 | 2.0 | 0.00 | 0.01 | 0.01 | 98 | 1014.6 |
| 20260510103904 | 51 | 26 | 1.0 | 1.0 | 0.00 | 0.01 | 0.01 | 98 | 1014.5 |
| 20260510103401 | 51 | 80 | 0.0 | 1.0 | 0.00 | 0.01 | 0.01 | 98 | 1014.4 |
| 20260510102856 | 51 | 100 | 1.0 | 1.0 | 0.00 | 0.01 | 0.01 | 98 | 1014.3 |
| 20260510102353 | 51 | 84 | 0.0 | 0.0 | 0.00 | 0.01 | 0.01 | 98 | 1014.5 |
| 20260510101850 | 51 | 63 | 0.0 | 2.0 | 0.00 | 0.01 | 0.01 | 98 | 1014.5 |
| 20260510101348 | 51 | 55 | 1.0 | 2.0 | 0.00 | 0.01 | 0.01 | 98 | 1014.5 |
| 20260510100844 | 51 | 75 | 0.0 | 2.0 | 0.00 | 0.01 | 0.01 | 98 | 1014.7 |
| 20260510100341 | 51 | 72 | 0.0 | 1.0 | 0.00 | 0.01 | 0.01 | 98 | 1014.7 |
| 20260510095838 | 50 | 85 | 1.0 | 1.0 | 0.00 | 0.01 | 0.01 | 98 | 1014.6 |
| 20260510095333 | 50 | 55 | 1.0 | 2.0 | 0.00 | 0.01 | 0.01 | 98 | 1014.5 |
| 20260510094832 | 50 | 352 | 4.0 | 6.0 | 0.00 | 0.01 | 0.01 | 98 | 1014.5 |
| 20260510094327 | 50 | 30 | 2.0 | 3.0 | 0.00 | 0.01 | 0.01 | 98 | 1014.4 |
| 20260510093824 | 50 | 53 | 1.0 | 2.0 | 0.00 | 0.01 | 0.01 | 98 | 1014.2 |
| 20260510093320 | 50 | 70 | 2.0 | 3.0 | 0.00 | 0.01 | 0.01 | 98 | 1014.6 |
| 20260510092816 | 50 | 73 | 1.0 | 6.0 | 0.00 | 0.01 | 0.01 | 97 | 1014.0 |
| 20260510092312 | 51 | 340 | 6.0 | 8.0 | 0.00 | 0.01 | 0.01 | 97 | 1014.7 |
| 20260510091808 | 51 | 59 | 1.0 | 3.0 | 0.05 | 0.01 | 0.01 | 97 | 1014.4 |
| 20260510091306 | 51 | 85 | 0.0 | 6.0 | 0.05 | 0.01 | 0.01 | 97 | 1014.0 |
| 20260510090802 | 51 | 38 | 2.0 | 4.0 | 0.00 | 0.00 | 0.00 | 98 | 1014.0 |
| 20260510090259 | 51 | 52 | 2.0 | 3.0 | 0.00 | 0.00 | 0.00 | 98 | 1014.1 |
| 20260510085755 | 51 | 76 | 1.0 | 1.0 | 0.00 | 0.00 | 0.00 | 98 | 1013.7 |
| 20260510085249 | 51 | 70 | 1.0 | 2.0 | 0.00 | 0.00 | 0.00 | 98 | 1013.9 |
| 20260510084745 | 51 | 78 | 0.0 | 1.0 | 0.00 | 0.00 | 0.00 | 98 | 1013.7 |
| 20260510084242 | 51 | 82 | 0.0 | 0.0 | 0.00 | 0.00 | 0.00 | 97 | 1013.6 |
| 20260510083739 | 51 | 81 | 0.0 | 1.0 | 0.00 | 0.00 | 0.00 | 97 | 1013.7 |
| 20260510083236 | 51 | 72 | 1.0 | 1.0 | 0.00 | 0.00 | 0.00 | 97 | 1013.8 |
| 20260510082731 | 51 | 93 | 0.0 | 1.0 | 0.00 | 0.00 | 0.00 | 98 | 1013.9 |
| 20260510082229 | 51 | 88 | 0.0 | 0.0 | 0.00 | 0.00 | 0.00 | 97 | 1013.6 |
| 20260510081728 | 51 | 77 | 0.0 | 1.0 | 0.00 | 0.00 | 0.00 | 97 | 1013.5 |
| 20260510081224 | 50 | 77 | 0.0 | 1.0 | 0.00 | 0.00 | 0.00 | 97 | 1013.6 |
| 20260510080719 | 50 | 42 | 1.0 | 1.0 | 0.00 | 0.00 | 0.00 | 97 | 1013.7 |
| 20260510080215 | 50 | 66 | 0.0 | 2.0 | 0.00 | 0.00 | 0.00 | 97 | 1013.8 |
| 20260510075712 | 50 | 81 | 0.0 | 1.0 | 0.00 | 0.00 | 0.00 | 97 | 1013.7 |
| 20260510075209 | 50 | 55 | 1.0 | 2.0 | 0.00 | 0.00 | 0.00 | 98 | 1013.6 |
| 20260510074706 | 50 | 78 | 0.0 | 2.0 | 0.00 | 0.00 | 0.00 | 98 | 1013.6 |
| 20260510074202 | 50 | 95 | 0.0 | 1.0 | 0.00 | 0.00 | 0.00 | 98 | 1013.4 |
| 20260510073659 | 50 | 61 | 1.0 | 1.0 | 0.00 | 0.00 | 0.00 | 98 | 1013.5 |
| 20260510073155 | 48 | 57 | 1.0 | 2.0 | 0.00 | 0.00 | 0.00 | 98 | 1013.3 |
| 20260510072651 | 47 | 91 | 0.0 | 0.0 | 0.00 | 0.00 | 0.00 | 97 | 1013.3 |
| 20260510072148 | 47 | 92 | 0.0 | 0.0 | 0.00 | 0.00 | 0.00 | 97 | 1013.3 |
| 20260510071644 | 47 | 91 | 0.0 | 0.0 | 0.00 | 0.00 | 0.00 | 97 | 1013.1 |
| 20260510071141 | 46 | 96 | 0.0 | 0.0 | 0.00 | 0.00 | 0.00 | 97 | 1013.0 |
| 20260510070639 | 46 | 96 | 0.0 | 0.0 | 0.00 | 0.00 | 0.00 | 97 | 1013.0 |
| 20260510070136 | 47 | 96 | 0.0 | 0.0 | 0.00 | 0.00 | 0.00 | 97 | 1013.0 |
| 20260510065631 | 47 | 96 | 0.0 | 0.0 | 0.00 | 0.00 | 0.00 | 97 | 1013.2 |
| 20260510065128 | 47 | 95 | 0.0 | 0.0 | 0.00 | 0.00 | 0.00 | 97 | 1013.1 |
| 20260510064624 | 47 | 95 | 0.0 | 0.0 | 0.00 | 0.00 | 0.00 | 97 | 1013.4 |
| 20260510064121 | 47 | 95 | 0.0 | 0.0 | 0.00 | 0.00 | 0.00 | 97 | 1013.1 |
| 20260510063618 | 47 | 95 | 0.0 | 0.0 | 0.00 | 0.00 | 0.00 | 97 | 1013.2 |
| 20260510063115 | 47 | 95 | 0.0 | 0.0 | 0.00 | 0.00 | 0.00 | 97 | 1013.0 |
| 20260510062610 | 47 | 95 | 0.0 | 0.0 | 0.00 | 0.00 | 0.00 | 97 | 1012.9 |
| 20260510062106 | 47 | 95 | 0.0 | 0.0 | 0.00 | 0.00 | 0.00 | 97 | 1013.3 |
| 20260510061603 | 47 | 95 | 0.0 | 0.0 | 0.00 | 0.00 | 0.00 | 97 | 1013.2 |
| 20260510061100 | 48 | 95 | 0.0 | 0.0 | 0.00 | 0.00 | 0.00 | 97 | 1013.1 |
| 20260510060555 | 48 | 95 | 0.0 | 0.0 | 0.00 | 0.00 | 0.00 | 97 | 1013.0 |
| 20260510060053 | 48 | 95 | 0.0 | 0.0 | 0.00 | 0.00 | 0.00 | 97 | 1013.2 |
| 20260510055548 | 48 | 95 | 0.0 | 0.0 | 0.00 | 0.00 | 0.00 | 97 | 1013.3 |
| 20260510055047 | 48 | 95 | 0.0 | 0.0 | 0.00 | 0.00 | 0.00 | 97 | 1013.1 |
| 20260510054542 | 48 | 94 | 0.0 | 0.0 | 0.00 | 0.00 | 0.00 | 97 | 1013.4 |
| 20260510054037 | 48 | 95 | 0.0 | 0.0 | 0.00 | 0.00 | 0.00 | 97 | 1013.4 |
| 20260510053532 | 48 | 95 | 0.0 | 0.0 | 0.00 | 0.00 | 0.00 | 97 | 1013.4 |
| 20260510053029 | 48 | 95 | 0.0 | 0.0 | 0.00 | 0.00 | 0.00 | 97 | 1013.5 |
| 20260510052525 | 48 | 95 | 0.0 | 0.0 | 0.00 | 0.00 | 0.00 | 97 | 1013.4 |
| 20260510052021 | 48 | 95 | 0.0 | 0.0 | 0.00 | 0.00 | 0.00 | 97 | 1013.6 |
| 20260510051517 | 49 | 95 | 0.0 | 0.0 | 0.00 | 0.00 | 0.00 | 97 | 1013.4 |
| 20260510051014 | 49 | 95 | 0.0 | 0.0 | 0.00 | 0.00 | 0.00 | 97 | 1013.7 |
| 20260510050511 | 49 | 95 | 0.0 | 0.0 | 0.00 | 0.00 | 0.00 | 97 | 1013.5 |
| 20260510050008 | 48 | 94 | 0.0 | 0.0 | 0.00 | 0.00 | 0.00 | 97 | 1013.8 |
| 20260510045505 | 49 | 94 | 0.0 | 0.0 | 0.00 | 0.00 | 0.00 | 97 | 1013.6 |
| 20260510045001 | 49 | 94 | 0.0 | 0.0 | 0.00 | 0.00 | 0.00 | 97 | 1013.6 |
| 20260510044458 | 48 | 94 | 0.0 | 0.0 | 0.00 | 0.00 | 0.00 | 96 | 1013.7 |
| 20260510043956 | 49 | 94 | 0.0 | 0.0 | 0.00 | 0.00 | 0.00 | 96 | 1013.8 |
| 20260510043451 | 49 | 94 | 0.0 | 0.0 | 0.00 | 0.00 | 0.00 | 96 | 1013.7 |
| 20260510042949 | 49 | 94 | 0.0 | 0.0 | 0.00 | 0.00 | 0.00 | 96 | 1013.8 |
| 20260510042445 | 48 | 94 | 0.0 | 0.0 | 0.00 | 0.00 | 0.00 | 96 | 1013.9 |
| 20260510041941 | 49 | 93 | 0.0 | 0.0 | 0.00 | 0.00 | 0.00 | 96 | 1013.8 |
| 20260510041438 | 49 | 93 | 0.0 | 0.0 | 0.00 | 0.00 | 0.00 | 96 | 1013.9 |
| 20260510040936 | 49 | 87 | 0.0 | 0.0 | 0.00 | 0.00 | 0.00 | 96 | 1013.9 |
| 20260510040432 | 49 | 104 | 0.0 | 0.0 | 0.00 | 0.00 | 0.00 | 96 | 1013.8 |
| 20260510035928 | 49 | 107 | 0.0 | 0.0 | 0.00 | 0.01 | 0.01 | 96 | 1014.0 |
| 20260510035425 | 50 | 107 | 0.0 | 0.0 | 0.00 | 0.01 | 0.01 | 96 | 1013.8 |
| 20260510034925 | 50 | 107 | 0.0 | 0.0 | 0.00 | 0.01 | 0.01 | 96 | 1013.8 |
| 20260510034424 | 50 | 108 | 0.0 | 0.0 | 0.00 | 0.01 | 0.01 | 96 | 1013.8 |
| 20260510033919 | 49 | 96 | 0.0 | 0.0 | 0.00 | 0.01 | 0.01 | 96 | 1013.4 |
| 20260510033416 | 50 | 96 | 0.0 | 0.0 | 0.00 | 0.01 | 0.01 | 96 | 1013.6 |
| 20260510032913 | 50 | 96 | 0.0 | 0.0 | 0.00 | 0.01 | 0.01 | 96 | 1013.6 |
| 20260510032409 | 50 | 96 | 0.0 | 0.0 | 0.00 | 0.01 | 0.01 | 96 | 1013.4 |
| 20260510031905 | 50 | 96 | 0.0 | 0.0 | 0.00 | 0.01 | 0.01 | 96 | 1013.4 |
| 20260510031401 | 50 | 96 | 0.0 | 0.0 | 0.00 | 0.01 | 0.01 | 96 | 1013.4 |
| 20260510030900 | 50 | 96 | 0.0 | 0.0 | 0.00 | 0.01 | 0.01 | 96 | 1013.2 |
| 20260510030357 | 50 | 96 | 0.0 | 0.0 | 0.00 | 0.01 | 0.01 | 96 | 1013.4 |
| 20260510025855 | 50 | 96 | 0.0 | 0.0 | 0.00 | 0.01 | 0.01 | 96 | 1013.3 |
| 20260510025352 | 50 | 96 | 0.0 | 0.0 | 0.00 | 0.01 | 0.01 | 96 | 1013.3 |
| 20260510024849 | 50 | 96 | 0.0 | 0.0 | 0.00 | 0.01 | 0.01 | 95 | 1013.4 |
| 20260510024346 | 50 | 96 | 0.0 | 0.0 | 0.00 | 0.01 | 0.01 | 95 | 1013.4 |
| 20260510023842 | 51 | 96 | 0.0 | 0.0 | 0.00 | 0.01 | 0.01 | 95 | 1013.2 |
| 20260510023338 | 51 | 96 | 0.0 | 0.0 | 0.00 | 0.01 | 0.01 | 95 | 1013.5 |
| 20260510022836 | 51 | 96 | 0.0 | 0.0 | 0.00 | 0.01 | 0.01 | 95 | 1013.3 |
| 20260510022335 | 51 | 97 | 0.0 | 0.0 | 0.00 | 0.01 | 0.01 | 95 | 1013.5 |
| 20260510021834 | 51 | 97 | 0.0 | 0.0 | 0.00 | 0.01 | 0.01 | 95 | 1013.4 |
| 20260510021333 | 51 | 97 | 0.0 | 0.0 | 0.00 | 0.01 | 0.01 | 95 | 1013.3 |
| 20260510020828 | 51 | 97 | 0.0 | 0.0 | 0.00 | 0.01 | 0.01 | 95 | 1013.0 |
| 20260510020328 | 51 | 97 | 0.0 | 0.0 | 0.00 | 0.01 | 0.01 | 95 | 1013.1 |
| 20260510015824 | 51 | 97 | 0.0 | 0.0 | 0.00 | 0.01 | 0.01 | 95 | 1013.2 |
| 20260510015321 | 52 | 97 | 0.0 | 0.0 | 0.00 | 0.01 | 0.01 | 95 | 1013.1 |
| 20260510014816 | 52 | 97 | 0.0 | 0.0 | 0.00 | 0.01 | 0.01 | 95 | 1013.2 |
| 20260510014313 | 51 | 96 | 0.0 | 0.0 | 0.00 | 0.01 | 0.01 | 94 | 1013.1 |
| 20260510013809 | 52 | 96 | 0.0 | 0.0 | 0.00 | 0.01 | 0.01 | 94 | 1013.1 |
| 20260510013306 | 52 | 96 | 0.0 | 0.0 | 0.00 | 0.01 | 0.01 | 94 | 1013.3 |
| 20260510012801 | 52 | 94 | 0.0 | 0.0 | 0.00 | 0.01 | 0.01 | 94 | 1013.1 |
| 20260510012301 | 52 | 97 | 0.0 | 0.0 | 0.00 | 0.01 | 0.01 | 93 | 1013.3 |
| 20260510011800 | 52 | 97 | 0.0 | 0.0 | 0.00 | 0.01 | 0.01 | 93 | 1013.1 |
| 20260510011256 | 53 | 97 | 0.0 | 0.0 | 0.00 | 0.01 | 0.01 | 94 | 1013.2 |
| 20260510010753 | 53 | 95 | 0.0 | 0.0 | 0.00 | 0.01 | 0.01 | 93 | 1013.0 |
| 20260510010250 | 53 | 95 | 0.0 | 0.0 | 0.00 | 0.01 | 0.01 | 93 | 1013.1 |
| 20260510005747 | 53 | 96 | 0.0 | 0.0 | 0.00 | 0.01 | 0.01 | 93 | 1012.9 |
| 20260510005243 | 53 | 97 | 0.0 | 0.0 | 0.00 | 0.01 | 0.01 | 92 | 1012.7 |
| 20260510004741 | 54 | 97 | 0.0 | 0.0 | 0.00 | 0.01 | 0.01 | 92 | 1012.9 |
| 20260510004239 | 54 | 97 | 0.0 | 0.0 | 0.00 | 0.01 | 0.01 | 92 | 1012.9 |
| 20260510003736 | 54 | 97 | 0.0 | 0.0 | 0.00 | 0.01 | 0.01 | 91 | 1012.9 |
| 20260510003232 | 54 | 97 | 0.0 | 0.0 | 0.00 | 0.01 | 0.01 | 91 | 1013.0 |
| 20260510002731 | 55 | 97 | 0.0 | 0.0 | 0.00 | 0.01 | 0.01 | 91 | 1013.1 |
| 20260510002229 | 55 | 90 | 0.0 | 0.0 | 0.00 | 0.01 | 0.01 | 90 | 1013.0 |
| 20260510001725 | 55 | 90 | 0.0 | 0.0 | 0.00 | 0.01 | 0.01 | 89 | 1013.0 |
| 20260510001224 | 56 | 104 | 0.0 | 0.0 | 0.00 | 0.01 | 0.01 | 88 | 1012.9 |
| 20260510000719 | 56 | 104 | 0.0 | 0.0 | 0.00 | 0.01 | 0.01 | 88 | 1012.9 |
| 20260510000218 | 57 | 105 | 0.0 | 1.0 | 0.00 | 0.01 | 0.01 | 87 | 1012.8 |
| 20260509235714 | 57 | 87 | 0.0 | 0.0 | 0.00 | 0.01 | 0.01 | 85 | 1012.7 |
| 20260509235210 | 57 | 85 | 0.0 | 0.0 | 0.00 | 0.01 | 0.01 | 84 | 1012.9 |
| 20260509234706 | 58 | 86 | 0.0 | 0.0 | 0.00 | 0.01 | 0.01 | 84 | 1012.8 |
| 20260509234203 | 58 | 80 | 0.0 | 1.0 | 0.00 | 0.01 | 0.01 | 82 | 1012.8 |
| 20260509233701 | 58 | 98 | 0.0 | 1.0 | 0.00 | 0.01 | 0.01 | 82 | 1012.7 |
| 20260509233159 | 59 | 84 | 0.0 | 1.0 | 0.00 | 0.01 | 0.01 | 81 | 1012.7 |
| 20260509232655 | 59 | 95 | 1.0 | 2.0 | 0.00 | 0.01 | 0.01 | 81 | 1012.5 |
| 20260509232151 | 59 | 72 | 2.0 | 2.0 | 0.00 | 0.01 | 0.01 | 81 | 1012.5 |
| 20260509231648 | 59 | 51 | 1.0 | 2.0 | 0.00 | 0.01 | 0.01 | 82 | 1012.5 |
| 20260509231146 | 59 | 59 | 1.0 | 4.0 | 0.00 | 0.01 | 0.01 | 82 | 1012.3 |
| 20260509230643 | 59 | 88 | 0.0 | 4.0 | 0.00 | 0.01 | 0.01 | 83 | 1012.3 |
| 20260509230140 | 59 | 103 | 2.0 | 3.0 | 0.00 | 0.01 | 0.01 | 83 | 1012.3 |
| 20260509225635 | 59 | 91 | 2.0 | 3.0 | 0.00 | 0.01 | 0.01 | 83 | 1012.5 |
| 20260509225131 | 58 | 37 | 3.0 | 3.0 | 0.00 | 0.01 | 0.01 | 83 | 1012.4 |
| 20260509224626 | 58 | 84 | 0.0 | 2.0 | 0.00 | 0.01 | 0.01 | 84 | 1012.8 |
| 20260509224124 | 58 | 75 | 1.0 | 3.0 | 0.00 | 0.01 | 0.01 | 84 | 1012.6 |
| 20260509223621 | 59 | 50 | 1.0 | 2.0 | 0.00 | 0.01 | 0.01 | 84 | 1012.6 |
| 20260509223118 | 58 | 67 | 0.0 | 2.0 | 0.00 | 0.01 | 0.01 | 84 | 1012.8 |
| 20260509222614 | 59 | 59 | 1.0 | 2.0 | 0.00 | 0.01 | 0.01 | 84 | 1012.9 |
| 20260509222110 | 59 | 55 | 0.0 | 2.0 | 0.00 | 0.01 | 0.01 | 83 | 1012.8 |
| 20260509221606 | 59 | 37 | 1.0 | 2.0 | 0.00 | 0.01 | 0.01 | 83 | 1012.6 |
| 20260509221102 | 58 | 90 | 2.0 | 3.0 | 0.00 | 0.01 | 0.01 | 82 | 1012.8 |
| 20260509220558 | 59 | 82 | 0.0 | 1.0 | 0.00 | 0.01 | 0.01 | 83 | 1012.8 |
| 20260509220054 | 59 | 69 | 1.0 | 1.0 | 0.00 | 0.01 | 0.01 | 83 | 1013.0 |
| 20260509215550 | 59 | 71 | 1.0 | 2.0 | 0.00 | 0.01 | 0.01 | 82 | 1013.1 |
| 20260509215048 | 59 | 63 | 4.0 | 4.0 | 0.00 | 0.01 | 0.01 | 80 | 1013.3 |
| 20260509214544 | 59 | 47 | 2.0 | 4.0 | 0.00 | 0.01 | 0.01 | 78 | 1013.0 |
| 20260509214041 | 59 | 61 | 5.0 | 7.0 | 0.07 | 0.01 | 0.01 | 78 | 1013.0 |
| 20260509213537 | 60 | 60 | 2.0 | 6.0 | 0.07 | 0.01 | 0.01 | 77 | 1012.8 |
| 20260509213034 | 60 | 58 | 2.0 | 4.0 | 0.00 | 0.00 | 0.00 | 74 | 1013.4 |
| 20260509212531 | 60 | 16 | 1.0 | 2.0 | 0.00 | 0.00 | 0.00 | 72 | 1013.4 |
| 20260509212028 | 61 | 21 | 2.0 | 6.0 | 0.00 | 0.00 | 0.00 | 71 | 1013.5 |
| 20260509211524 | 61 | 25 | 4.0 | 6.0 | 0.00 | 0.00 | 0.00 | 71 | 1013.4 |
| 20260509211021 | 61 | 54 | 2.0 | 6.0 | 0.00 | 0.00 | 0.00 | 71 | 1013.2 |
| 20260509210518 | 62 | 26 | 3.0 | 6.0 | 0.00 | 0.00 | 0.00 | 69 | 1013.0 |
| 20260509210014 | 62 | 89 | 1.0 | 3.0 | 0.00 | 0.00 | 0.00 | 69 | 1012.9 |
| 20260509205508 | 62 | 60 | 2.0 | 2.0 | 0.00 | 0.00 | 0.00 | 67 | 1012.9 |
| 20260509205004 | 62 | 43 | 3.0 | 4.0 | 0.00 | 0.00 | 0.00 | 66 | 1012.9 |
| 20260509204500 | 63 | 48 | 3.0 | 3.0 | 0.00 | 0.00 | 0.00 | 66 | 1013.1 |
| 20260509203957 | 62 | 302 | 3.0 | 4.0 | 0.00 | 0.00 | 0.00 | 66 | 1012.8 |
| 20260509203453 | 62 | 2 | 4.0 | 4.0 | 0.00 | 0.00 | 0.00 | 67 | 1012.8 |
| 20260509202951 | 62 | 58 | 0.0 | 3.0 | 0.00 | 0.00 | 0.00 | 69 | 1012.6 |
| 20260509202446 | 61 | 322 | 6.0 | 9.0 | 0.00 | 0.00 | 0.00 | 69 | 1012.6 |
| 20260509201942 | 61 | 49 | 1.0 | 4.0 | 0.00 | 0.00 | 0.00 | 71 | 1012.8 |
| 20260509201437 | 62 | 22 | 2.0 | 6.0 | 0.00 | 0.00 | 0.00 | 69 | 1012.9 |
| 20260509200934 | 62 | 29 | 2.0 | 7.0 | 0.00 | 0.00 | 0.00 | 69 | 1012.8 |
| 20260509200434 | 62 | 343 | 2.0 | 6.0 | 0.00 | 0.00 | 0.00 | 68 | 1012.7 |
| 20260509195931 | 63 | 45 | 1.0 | 6.0 | 0.00 | 0.00 | 0.00 | 67 | 1012.6 |
| 20260509195427 | 62 | 322 | 4.0 | 9.0 | 0.00 | 0.00 | 0.00 | 69 | 1012.6 |
| 20260509194926 | 63 | 315 | 9.0 | 11.0 | 0.00 | 0.00 | 0.00 | 69 | 1012.6 |
| 20260509194422 | 63 | 354 | 5.0 | 14.0 | 0.00 | 0.00 | 0.00 | 70 | 1012.7 |
| 20260509193920 | 62 | 334 | 2.0 | 8.0 | 0.00 | 0.00 | 0.00 | 73 | 1012.8 |
| 20260509193419 | 63 | 24 | 1.0 | 7.0 | 0.00 | 0.00 | 0.00 | 71 | 1013.0 |
| 20260509192915 | 63 | 49 | 2.0 | 3.0 | 0.00 | 0.00 | 0.00 | 73 | 1013.0 |
| 20260509192412 | 62 | 316 | 2.0 | 4.0 | 0.00 | 0.00 | 0.00 | 72 | 1012.8 |
| 20260509191907 | 61 | 63 | 2.0 | 2.0 | 0.00 | 0.00 | 0.00 | 73 | 1012.9 |
| 20260509191403 | 61 | 26 | 0.0 | 3.0 | 0.00 | 0.00 | 0.00 | 73 | 1013.0 |
| 20260509190859 | 61 | 336 | 3.0 | 6.0 | 0.00 | 0.00 | 0.00 | 73 | 1013.1 |